Vertical_Velocity
-3 0 -1 -2 3 0 2 -0 0 -1 -0 -2 1 -0 1 -2 0 -1 -1 -1 -0 0 -2 -2 -4 -3 -2 -4 6 1 4 -2 -3 3 -4 1 0 -2 5 3 -9 7 2 -6 -7 16 6
-1 -2 2 -1 2 -2 -0 -3 3 -4 -2 0 1 -0 -1 1 0 0 -1 -1 -0 -0 -3 -4 -5 0 -0 7 -22 -4 9 3 -3 1 -2 -2 2 4 -2 -2 2 -5 0 3 -3 3 4
0 -1 1 -2 1 -1 1 1 2 -4 -0 1 -2 -1 -1 -1 -1 -0 -3 1 -0 1 -3 -5 -3 -2 -8 28 -12 -9 8 -2 3 1 2 -2 -3 -0 -0 -2 -0 3 1 -5 0 3 -0
1 2 3 1 0 1 5 -1 -1 -1 2 2 -1 0 1 -2 -0 -0 -1 -1 0 -1 1 -4 -3 -13 6 7 -9 -0 1 3 2 4 -6 1 -3 -0 2 -2 2 -1 -3 -2 7 -2 -0
4 7 8 8 2 -0 -1 -2 6 9 12 14 -0 1 -2 -2 -0 -2 -1 -1 -0 -4 -2 -2 -5 -6 24 -2 -3 -1 3 2 3 3 1 -2 -2 1 -3 0 -2 -2 4 -5 -2 -0 4
3 4 7 7 8 7 5 -1 -2 -1 -4 3 12 -2 3 3 -3 -3 -5 -0 -0 -1 -2 -4 -6 -9 12 -2 1 4 -1 1 1 2 -2 -6 2 -2 -3 0 9 0 -4 -7 -8 -5 -4
-4 -6 6 8 2 6 7 17 3 2 -3 -2 -2 0 4 -1 -2 2 -0 1 -8 -10 -2 8 -5 -6 5 3 -6 9 3 0 -2 4 -1 -6 -2 1 -3 -3 4 -4 2 3 -6 -4 -2
-1 -1 -7 -9 -3 4 6 2 4 8 12 5 7 -3 1 2 1 1 -4 -4 -9 -9 -12 7 4 -5 9 -12 -8 14 -5 5 -5 7 -9 -7 8 -2 2 -3 -1 -1 3 6 1 -2 1
2 0 -1 -2 -4 -3 -10 -1 5 4 7 11 11 6 1 -0 -2 9 3 1 -1 -6 -24 16 11 1 14 -28 4 8 -5 5 3 -3 0 -7 11 -1 1 -4 2 2 3 6 7 1 -9
-1 -1 -2 -1 0 -1 -0 1 -12 -7 7 4 6 8 5 -2 24 11 20 6 -1 -3 -31 6 14 -8 -1 -0 -32 5 -7 10 -6 6 -1 -14 1 1 2 2 3 1 0 6 3 3 -0
-1 1 -2 -2 0 2 1 0 3 0 -5 -9 0 10 9 9 8 21 5 2 2 8 -38 6 -14 -3 9 -9 5 0 18 -12 1 14 -15 18 5 -0 -5 11 -0 7 1 -1 2 -2 -0
1 0 1 1 -2 1 -1 0 0 -1 0 6 -8 -5 -4 8 14 13 10 8 1 10 -39 -6 -9 -1 0 -1 2 -2 5 -1 12 -2 -13 6 -1 -7 -2 1 1 4 -1 2 4 6 -26
0 -0 -0 2 1 -2 -1 -2 -1 -2 -0 6 -1 -0 -2 -18 25 -6 1 2 7 -8 11 5 -10 -2 2 -2 3 -13 2 2 -1 -0 2 22 11 7 -7 -2 -1 7 1 -1 -3 -8 -14
2 -2 2 1 -1 1 -0 -0 -1 -1 -0 -1 5 -2 6 2 -9 8 -3 2 -26 -8 15 7 9 -11 -1 5 2 7 -2 -0 4 -4 4 -2 -7 15 14 -7 13 1 -1 16 -9 -2 -8
1 0 -0 0 2 0 1 0 -0 -3 2 1 1 -3 4 27 -2 8 13 7 -51 19 13 38 -32 -11 2 4 1 5 0 -9 10 5 -1 -7 -11 17 -6 -6 5 24 -20 26 -10 5 -16
0 1 -2 -2 -1 0 -1 -0 -1 -0 1 6 -1 -0 7 17 -3 13 10 2 -65 2 19 8 -18 -7 3 0 -8 -0 1 7 -1 -0 14 -2 -2 2 -3 8 -0 -1 2 3 1 -7 1
0 0 -0 -1 -1 -1 1 2 0 2 5 14 -4 -13 42 20 11 13 -14 -20 -33 16 11 15 -7 -10 2 -0 2 -3 1 7 -14 5 8 10 10 16 -6 -6 -2 -5 5 -3 6 -9 4
0 1 0 -1 -1 0 1 1 1 2 12 2 8 -15 31 8 1 1 -15 -23 19 5 17 20 2 -17 -8 7 4 4 -8 -6 3 5 0 7 1 -10 1 10 5 -5 5 6 -10 3 -3
-1 -2 -1 1 0 -1 -1 1 2 2 5 16 -2 23 -1 11 -7 -13 1 -10 -4 -11 16 15 -6 -6 9 -3 -7 -12 6 0 1 4 3 8 17 1 -0 -17 6 0 3 9 9 1 -12
-1 0 0 -0 0 2 1 0 4 5 8 4 6 4 3 20 6 -1 -6 -33 -6 9 9 14 -19 14 -5 -9 0 -3 12 -10 -6 -4 0 4 -4 6 3 7 7 -1 0 -4 5 -5 0
1 0 -2 -3 -3 0 -2 1 5 8 11 7 6 -2 6 18 -17 -9 10 0 10 -9 -21 28 -7 -10 4 -18 7 -2 -4 -5 -2 0 9 5 -3 -0 -0 -4 -1 0 -6 7 2 2 -13
-1 -1 1 0 -2 -2 -3 -1 5 9 22 -3 -5 2 10 7 20 4 18 -13 1 3 -8 -7 -6 10 15 -8 -2 13 8 -5 9 8 6 7 4 9 3 -2 -1 -12 -16 8 3 3 -8
-0 -1 -0 -0 0 -1 -1 -1 4 9 14 -1 1 4 20 11 7 4 2 -8 -6 23 15 3 -0 7 2 -4 -1 2 9 -7 -10 -1 4 3 -7 -1 -7 13 4 -33 21 2 6 2 9
-1 0 -1 -2 0 -0 1 -1 1 9 4 6 -0 6 15 -2 -10 18 15 11 6 -0 2 12 11 3 5 -1 -1 9 3 -3 16 -1 6 13 4 5 0 7 -13 4 -1 -4 -7 6 6
-1 -0 0 1 2 1 0 -0 1 1 10 -3 -5 -3 27 -7 13 5 -3 -3 20 2 -13 0 -4 2 5 10 5 -8 -9 7 -7 -1 3 2 2 -4 -9 -0 6 -10 -4 1 -0 2 3
-1 1 2 2 2 1 1 1 1 1 5 1 2 9 17 2 -18 36 17 11 -3 -14 14 -8 -1 1 1 67 19 -10 4 5 -2 0 8 0 -4 1 4 -5 -9 22 7 -7 5 -37 5
1 0 1 2 0 -0 1 2 -1 1 -0 -0 3 4 15 1 -7 1 8 -1 19 -0 -2 22 -13 2 18 13 14 48 6 9 -17 -2 5 2 4 -6 1 -1 -17 39 -7 -2 -15 7 0
-0 0 3 2 1 0 0 0 -1 0 -0 2 7 1 -5 -2 10 0 12 19 16 -3 -8 16 5 -6 9 -2 31 16 -18 -7 -1 6 5 6 0 -4 1 -1 -33 13 12 -20 18 -1 -3
-1 -0 3 1 1 -1 -1 0 -1 2 1 2 -1 -0 7 -7 24 10 23 3 -7 -2 -1 2 -0 8 5 2 -1 -10 17 19 -5 -4 -5 -14 2 5 5 5 -2 -5 5 -5 -2 -1 0
Height
5746 5750 5753 5756 5759 5761 5765 5766 5770 5771 5774 5777 5780 5782 5784 5786 5788 5789 5792 5795 5798 5799 5800 5802 5805 5808 5810 5812 5815 5812 5817 5817 5817 5818 5819 5819 5821 5821 5821 5820 5818 5820 5821 5816 5817 5825 5822
5733 5737 5740 5743 5746 5748 5752 5754 5757 5760 5763 5765 5767 5770 5772 5774 5777 5779 5782 5784 5787 5789 5791 5794 5797 5799 5801 5806 5802 5806 5809 5809 5809 5811 5812 5812 5814 5815 5814 5813 5812 5810 5813 5811 5813 5814 5816
5720 5724 5727 5730 5733 5737 5740 5743 5744 5748 5751 5753 5755 5759 5761 5763 5766 5768 5771 5773 5775 5779 5782 5785 5786 5788 5791 5799 5795 5796 5802 5801 5802 5804 5805 5805 5807 5807 5807 5804 5804 5805 5805 5803 5805 5806 5807
5706 5710 5713 5716 5720 5724 5728 5732 5734 5736 5739 5741 5745 5747 5749 5752 5754 5757 5759 5761 5764 5768 5772 5774 5777 5777 5781 5786 5785 5789 5790 5794 5792 5796 5797 5799 5798 5799 5798 5798 5798 5797 5797 5797 5801 5797 5799
5691 5694 5698 5701 5705 5709 5713 5718 5721 5725 5727 5729 5732 5734 5738 5740 5742 5745 5748 5750 5754 5758 5761 5764 5767 5767 5774 5778 5776 5779 5782 5784 5784 5788 5788 5790 5792 5791 5791 5791 5791 5792 5791 5791 5791 5790 5793
5672 5676 5679 5684 5688 5695 5699 5703 5707 5711 5714 5717 5720 5723 5726 5727 5731 5732 5736 5739 5743 5747 5750 5753 5757 5759 5766 5767 5768 5772 5772 5773 5776 5780 5780 5782 5782 5783 5785 5783 5787 5786 5783 5784 5783 5783 5784
5654 5657 5660 5666 5671 5677 5682 5687 5691 5696 5700 5704 5707 5711 5714 5715 5720 5722 5725 5728 5732 5735 5738 5746 5747 5750 5753 5758 5761 5763 5764 5764 5767 5770 5774 5772 5772 5778 5777 5776 5778 5777 5778 5779 5777 5775 5777
5634 5637 5642 5645 5650 5658 5663 5669 5674 5680 5685 5689 5693 5696 5701 5704 5708 5710 5712 5715 5717 5721 5726 5734 5738 5738 5747 5744 5746 5750 5754 5757 5758 5761 5762 5764 5766 5770 5769 5768 5770 5771 5773 5774 5775 5771 5773
5615 5619 5623 5628 5633 5635 5640 5649 5657 5663 5668 5673 5677 5682 5687 5691 5694 5698 5700 5701 5704 5707 5713 5719 5727 5733 5737 5734 5732 5739 5743 5746 5749 5751 5752 5755 5761 5759 5760 5760 5764 5767 5767 5769 5770 5768 5766
5595 5601 5605 5610 5616 5620 5624 5629 5634 5643 5651 5654 5662 5666 5671 5675 5683 5683 5687 5687 5691 5696 5697 5705 5713 5719 5721 5724 5721 5726 5734 5737 5739 5742 5746 5746 5748 5750 5752 5753 5757 5759 5762 5761 5761 5763 5763
5576 5581 5587 5592 5597 5603 5608 5613 5619 5624 5630 5636 5643 5649 5655 5660 5665 5668 5667 5671 5679 5686 5686 5693 5692 5701 5708 5713 5719 5719 5724 5724 5730 5734 5735 5739 5741 5741 5743 5746 5748 5749 5751 5749 5753 5754 5752
5555 5560 5567 5572 5577 5583 5589 5596 5602 5608 5614 5620 5625 5631 5638 5645 5650 5649 5650 5655 5665 5673 5673 5681 5681 5684 5690 5700 5706 5707 5712 5715 5720 5720 5723 5729 5730 5732 5735 5735 5737 5738 5741 5741 5743 5741 5737
5533 5538 5543 5550 5557 5562 5569 5576 5583 5590 5596 5603 5609 5614 5623 5628 5629 5631 5636 5638 5645 5655 5670 5673 5674 5673 5675 5684 5694 5697 5699 5705 5708 5710 5714 5719 5722 5726 5724 5725 5728 5730 5731 5732 5730 5728 5731
5510 5515 5521 5528 5534 5541 5548 5556 5563 5571 5578 5585 5591 5598 5607 5615 5609 5617 5618 5620 5624 5649 5661 5659 5661 5663 5668 5672 5679 5686 5688 5691 5696 5700 5702 5703 5708 5712 5715 5716 5718 5719 5720 5720 5718 5719 5721
5491 5496 5501 5506 5512 5519 5526 5534 5543 5551 5559 5565 5570 5581 5592 5598 5594 5602 5601 5600 5612 5640 5650 5644 5638 5650 5660 5659 5665 5671 5675 5680 5686 5686 5688 5691 5695 5699 5700 5703 5704 5705 5704 5712 5708 5710 5708
5472 5477 5481 5487 5492 5499 5506 5514 5522 5531 5540 5546 5550 5557 5579 5577 5577 5582 5580 5585 5610 5627 5636 5622 5624 5637 5646 5650 5652 5654 5660 5669 5673 5675 5676 5679 5681 5683 5687 5690 5691 5693 5698 5697 5694 5697 5699
5453 5458 5463 5468 5474 5481 5488 5495 5503 5513 5522 5528 5530 5533 5566 5559 5557 5558 5560 5576 5605 5616 5616 5613 5610 5624 5632 5638 5640 5643 5647 5652 5658 5663 5665 5668 5668 5675 5676 5676 5680 5683 5686 5685 5685 5686 5688
5434 5439 5444 5450 5456 5463 5471 5478 5486 5495 5503 5507 5515 5515 5544 5536 5535 5541 5549 5572 5594 5597 5600 5603 5600 5612 5620 5625 5627 5632 5637 5642 5646 5649 5651 5653 5653 5658 5664 5668 5671 5671 5674 5674 5671 5677 5678
5414 5419 5424 5429 5435 5443 5452 5461 5470 5478 5485 5494 5498 5508 5514 5516 5516 5528 5544 5558 5570 5582 5590 5590 5590 5602 5608 5614 5616 5621 5628 5630 5634 5638 5640 5644 5640 5643 5647 5652 5657 5659 5663 5666 5667 5666 5666
5399 5402 5405 5409 5415 5421 5430 5441 5453 5462 5469 5475 5483 5491 5502 5506 5509 5518 5531 5543 5557 5572 5572 5575 5582 5588 5595 5603 5608 5613 5614 5616 5622 5625 5629 5631 5633 5635 5638 5644 5649 5649 5651 5653 5653 5654 5657
5389 5391 5393 5396 5398 5401 5408 5420 5433 5444 5453 5455 5464 5476 5488 5494 5498 5509 5519 5534 5541 5549 5556 5564 5566 5578 5587 5590 5597 5600 5602 5607 5610 5616 5619 5619 5622 5625 5628 5632 5635 5637 5642 5646 5644 5645 5642
5378 5380 5382 5384 5385 5387 5391 5398 5412 5427 5433 5434 5448 5464 5475 5485 5493 5501 5507 5514 5524 5540 5544 5553 5556 5570 5575 5578 5586 5594 5593 5598 5603 5607 5609 5610 5613 5617 5619 5623 5624 5625 5633 5630 5634 5635 5634
5367 5369 5370 5372 5373 5374 5377 5383 5392 5405 5411 5418 5433 5452 5462 5474 5482 5489 5497 5512 5518 5528 5529 5538 5547 5556 5561 5571 5576 5581 5584 5587 5591 5597 5599 5600 5603 5607 5610 5613 5609 5611 5624 5620 5622 5624 5622
5356 5358 5360 5361 5362 5363 5366 5372 5379 5386 5394 5410 5427 5443 5453 5460 5470 5480 5490 5502 5510 5514 5522 5531 5537 5544 5558 5558 5565 5569 5571 5575 5579 5584 5588 5590 5592 5597 5600 5600 5596 5609 5609 5609 5609 5611 5612
5345 5348 5350 5351 5352 5352 5355 5360 5367 5374 5381 5394 5416 5432 5439 5450 5466 5474 5482 5491 5500 5504 5510 5518 5529 5535 5543 5548 5551 5554 5558 5562 5568 5572 5576 5579 5583 5587 5588 5590 5592 5599 5597 5600 5600 5606 5604
5334 5337 5340 5341 5342 5342 5345 5350 5357 5364 5371 5383 5404 5421 5430 5442 5456 5461 5471 5481 5490 5497 5503 5509 5517 5524 5533 5538 5538 5539 5543 5552 5557 5562 5567 5570 5573 5577 5579 5579 5583 5594 5589 5590 5590 5596 5597
5324 5327 5330 5332 5332 5332 5336 5341 5348 5355 5362 5374 5392 5408 5421 5434 5449 5459 5468 5473 5481 5488 5495 5501 5507 5515 5520 5528 5532 5532 5536 5541 5547 5552 5558 5560 5563 5567 5569 5572 5579 5584 5580 5581 5583 5590 5588
5314 5318 5321 5322 5323 5324 5328 5334 5341 5348 5356 5366 5383 5398 5415 5431 5444 5454 5462 5467 5474 5482 5490 5496 5498 5502 5509 5516 5519 5523 5528 5531 5537 5543 5548 5552 5555 5560 5563 5563 5571 5572 5572 5575 5578 5577 5578
5307 5311 5313 5314 5315 5316 5322 5329 5336 5342 5350 5360 5373 5391 5408 5424 5439 5448 5456 5459 5469 5476 5482 5488 5493 5497 5501 5506 5512 5517 5522 5522 5529 5533 5537 5543 5548 5552 5556 5559 5560 5561 5563 5564 5566 5567 5571